Time,TemperatureF,DewpointF,PressureIn,WindDirection,WindDirectionDegrees,WindSpeedMPH,WindSpeedGustMPH,Humidity,HourlyPrecipIn,Conditions,Clouds,dailyrainin,SoftwareType,DateUTC
2013-03-11 00:00:00,38.7,16.4,30.21,North,0,3.1,3.1,40,0.00,,---,0.00,VWS V14.01,2013-03-11 06:00:00,
2013-03-11 00:05:00,38.5,16.3,30.21,North,3,0.0,4.0,40,0.00,,---,0.00,VWS V14.01,2013-03-11 06:05:00,
2013-03-11 00:10:00,38.5,16.3,30.21,North,3,0.0,4.0,40,0.00,,---,0.00,VWS V14.01,2013-03-11 06:10:00,
2013-03-11 00:15:00,38.3,16.1,30.21,North,3,0.0,0.0,40,0.00,,---,0.00,VWS V14.01,2013-03-11 06:15:00,
2013-03-11 00:20:00,38.1,15.9,30.21,NNW,341,0.0,3.1,40,0.00,,---,0.00,VWS V14.01,2013-03-11 06:20:00,
2013-03-11 00:25:00,38.1,16.5,30.21,North,0,0.0,3.1,41,0.00,,---,0.00,VWS V14.01,2013-03-11 06:25:00,
2013-03-11 00:30:00,37.9,16.4,30.21,North,0,0.0,0.0,41,0.00,,---,0.00,VWS V14.01,2013-03-11 06:30:00,
2013-03-11 00:35:00,37.9,15.8,30.21,North,0,0.0,0.0,40,0.00,,---,0.00,VWS V14.01,2013-03-11 06:35:00,
2013-03-11 00:40:00,37.9,16.4,30.21,North,0,0.0,0.0,41,0.00,,---,0.00,VWS V14.01,2013-03-11 06:40:00,
2013-03-11 00:45:00,37.9,16.4,30.21,North,0,0.0,0.0,41,0.00,,---,0.00,VWS V14.01,2013-03-11 06:45:00,
2013-03-11 00:50:00,37.6,16.6,30.21,North,2,0.0,0.0,42,0.00,,---,0.00,VWS V14.01,2013-03-11 06:50:00,
2013-03-11 00:55:00,37.6,16.6,30.21,NNE,14,0.0,0.0,42,0.00,,---,0.00,VWS V14.01,2013-03-11 06:55:00,
2013-03-11 01:00:00,37.4,17.0,30.21,NNE,14,0.0,0.0,43,0.00,,---,0.00,VWS V14.01,2013-03-11 07:00:00,
2013-03-11 01:05:00,36.9,17.5,30.21,North,357,0.0,0.0,45,0.00,,---,0.00,VWS V14.01,2013-03-11 07:05:00,
2013-03-11 01:10:00,36.7,17.4,30.21,North,3,2.7,3.6,45,0.00,,---,0.00,VWS V14.01,2013-03-11 07:10:00,
2013-03-11 01:15:00,36.3,17.5,30.21,North,8,2.2,3.1,46,0.00,,---,0.00,VWS V14.01,2013-03-11 07:15:00,
2013-03-11 01:20:00,36.3,18.0,30.21,North,4,2.7,3.6,47,0.00,,---,0.00,VWS V14.01,2013-03-11 07:20:00,
2013-03-11 01:25:00,36.1,17.4,30.21,North,4,0.0,3.6,46,0.00,,---,0.00,VWS V14.01,2013-03-11 07:25:00,
2013-03-11 01:30:00,35.8,17.0,30.21,SSW,193,0.0,0.0,46,0.00,,---,0.00,VWS V14.01,2013-03-11 07:30:00,
2013-03-11 01:35:00,35.6,16.4,30.21,South,189,0.0,0.0,45,0.00,,---,0.00,VWS V14.01,2013-03-11 07:35:00,
2013-03-11 01:40:00,35.4,16.2,30.21,South,189,0.0,0.0,45,0.00,,---,0.00,VWS V14.01,2013-03-11 07:40:00,
2013-03-11 01:45:00,35.1,15.9,30.21,South,189,0.0,0.0,45,0.00,,---,0.00,VWS V14.01,2013-03-11 07:45:00,
2013-03-11 01:50:00,35.1,15.9,30.21,South,189,0.0,0.0,45,0.00,,---,0.00,VWS V14.01,2013-03-11 07:50:00,
2013-03-11 01:55:00,34.9,15.7,30.21,South,189,0.0,0.0,45,0.00,,---,0.00,VWS V14.01,2013-03-11 07:55:00,
2013-03-11 02:00:00,34.7,16.0,30.21,South,189,0.0,0.0,46,0.00,,---,0.00,VWS V14.01,2013-03-11 08:00:00,
2013-03-11 02:05:00,34.7,16.5,30.21,WNW,283,0.0,0.0,47,0.00,,---,0.00,VWS V14.01,2013-03-11 08:05:00,
2013-03-11 02:10:00,34.5,16.4,30.21,WNW,283,0.0,0.0,47,0.00,,---,0.00,VWS V14.01,2013-03-11 08:10:00,
2013-03-11 02:15:00,34.5,16.4,30.21,WNW,283,0.0,0.0,47,0.00,,---,0.00,VWS V14.01,2013-03-11 08:15:00,
2013-03-11 02:20:00,34.5,16.4,30.21,WNW,283,0.0,0.0,47,0.00,,---,0.00,VWS V14.01,2013-03-11 08:20:00,
2013-03-11 02:25:00,34.5,16.4,30.21,WSW,238,0.0,0.0,47,0.00,,---,0.00,VWS V14.01,2013-03-11 08:25:00,
2013-03-11 02:30:00,34.5,16.4,30.21,WSW,252,0.0,0.0,47,0.00,,---,0.00,VWS V14.01,2013-03-11 08:30:00,
2013-03-11 02:35:00,34.3,16.7,30.21,West,259,0.0,0.0,48,0.00,,---,0.00,VWS V14.01,2013-03-11 08:35:00,
2013-03-11 02:40:00,34.3,16.7,30.21,West,259,0.0,0.0,48,0.00,,---,0.00,VWS V14.01,2013-03-11 08:40:00,
2013-03-11 02:45:00,34.3,17.2,30.21,West,259,0.0,0.0,49,0.00,,---,0.00,VWS V14.01,2013-03-11 08:45:00,
2013-03-11 02:50:00,34.3,17.2,30.21,West,259,0.0,0.0,49,0.00,,---,0.00,VWS V14.01,2013-03-11 08:50:00,
2013-03-11 02:55:00,34.3,17.2,30.21,WSW,245,0.0,0.0,49,0.00,,---,0.00,VWS V14.01,2013-03-11 08:55:00,
2013-03-11 03:00:00,34.3,17.6,30.21,WSW,245,0.0,0.0,50,0.00,,---,0.00,VWS V14.01,2013-03-11 09:00:00,
2013-03-11 03:05:00,34.5,17.8,30.21,WSW,252,0.0,0.0,50,0.00,,---,0.00,VWS V14.01,2013-03-11 09:05:00,
2013-03-11 03:10:00,34.5,17.8,30.21,WSW,253,0.0,0.0,50,0.00,,---,0.00,VWS V14.01,2013-03-11 09:10:00,
2013-03-11 03:15:00,34.5,17.8,30.21,WSW,253,0.0,0.0,50,0.00,,---,0.00,VWS V14.01,2013-03-11 09:15:00,
2013-03-11 03:20:00,34.5,17.8,30.21,WSW,253,0.0,0.0,50,0.00,,---,0.00,VWS V14.01,2013-03-11 09:20:00,
2013-03-11 03:25:00,34.3,17.6,30.21,WSW,253,0.0,0.0,50,0.00,,---,0.00,VWS V14.01,2013-03-11 09:25:00,
2013-03-11 03:30:00,34.3,17.6,30.21,South,190,0.0,0.0,50,0.00,,---,0.00,VWS V14.01,2013-03-11 09:30:00,
2013-03-11 03:35:00,34.0,17.3,30.21,South,190,0.0,0.0,50,0.00,,---,0.00,VWS V14.01,2013-03-11 09:35:00,
2013-03-11 03:40:00,33.6,17.4,30.18,South,190,0.0,0.0,51,0.00,,---,0.00,VWS V14.01,2013-03-11 09:40:00,
2013-03-11 03:45:00,33.4,17.3,30.18,SSW,194,0.0,0.0,51,0.00,,---,0.00,VWS V14.01,2013-03-11 09:45:00,
2013-03-11 03:50:00,33.6,17.9,30.18,SE,136,2.2,4.0,52,0.00,,---,0.00,VWS V14.01,2013-03-11 09:50:00,
2013-03-11 03:55:00,33.6,17.9,30.18,SW,222,0.0,4.0,52,0.00,,---,0.00,VWS V14.01,2013-03-11 09:55:00,
2013-03-11 04:00:00,34.0,17.8,30.18,SSE,159,2.7,3.1,51,0.00,,---,0.00,VWS V14.01,2013-03-11 10:00:00,
2013-03-11 04:05:00,34.3,19.0,30.18,South,180,3.1,4.9,53,0.00,,---,0.00,VWS V14.01,2013-03-11 10:05:00,
2013-03-11 04:10:00,34.5,19.2,30.18,South,185,3.6,4.9,53,0.00,,---,0.00,VWS V14.01,2013-03-11 10:10:00,
2013-03-11 04:15:00,34.9,19.5,30.18,South,189,6.3,6.3,53,0.00,,---,0.00,VWS V14.01,2013-03-11 10:15:00,
2013-03-11 04:20:00,35.1,20.1,30.18,South,189,2.7,6.3,54,0.00,,---,0.00,VWS V14.01,2013-03-11 10:20:00,
2013-03-11 04:25:00,35.1,19.7,30.18,SW,234,2.7,6.3,53,0.00,,---,0.00,VWS V14.01,2013-03-11 10:25:00,
2013-03-11 04:30:00,35.1,19.7,30.18,SSW,205,0.0,0.0,53,0.00,,---,0.00,VWS V14.01,2013-03-11 10:30:00,
2013-03-11 04:35:00,35.4,20.4,30.18,SSW,200,4.0,5.4,54,0.00,,---,0.00,VWS V14.01,2013-03-11 10:35:00,
2013-03-11 04:40:00,35.2,20.3,30.18,SE,140,0.0,5.4,54,0.00,,---,0.00,VWS V14.01,2013-03-11 10:40:00,
2013-03-11 04:45:00,34.7,19.8,30.18,South,176,3.6,4.0,54,0.00,,---,0.00,VWS V14.01,2013-03-11 10:45:00,
2013-03-11 04:50:00,34.7,20.2,30.18,South,171,0.0,6.3,55,0.00,,---,0.00,VWS V14.01,2013-03-11 10:50:00,
2013-03-11 04:55:00,34.5,20.0,30.18,SE,134,0.0,6.3,55,0.00,,---,0.00,VWS V14.01,2013-03-11 10:55:00,
2013-03-11 05:00:00,34.9,20.4,30.18,SE,140,4.0,5.8,55,0.00,,---,0.00,VWS V14.01,2013-03-11 11:00:00,
2013-03-11 05:05:00,35.4,21.3,30.18,South,178,0.0,5.8,56,0.00,,---,0.00,VWS V14.01,2013-03-11 11:05:00,
2013-03-11 05:10:00,35.6,21.5,30.18,South,178,0.0,5.8,56,0.00,,---,0.00,VWS V14.01,2013-03-11 11:10:00,
2013-03-11 05:15:00,35.4,21.3,30.18,South,178,0.0,0.0,56,0.00,,---,0.00,VWS V14.01,2013-03-11 11:15:00,
2013-03-11 05:20:00,35.4,21.7,30.18,South,178,0.0,0.0,57,0.00,,---,0.00,VWS V14.01,2013-03-11 11:20:00,
2013-03-11 05:25:00,35.4,22.5,30.18,South,172,0.0,0.0,59,0.00,,---,0.00,VWS V14.01,2013-03-11 11:25:00,
2013-03-11 05:30:00,35.2,22.0,30.18,ENE,78,0.0,2.2,58,0.00,,---,0.00,VWS V14.01,2013-03-11 11:30:00,
2013-03-11 05:35:00,34.9,21.6,30.18,East,82,0.0,2.7,58,0.00,,---,0.00,VWS V14.01,2013-03-11 11:35:00,
2013-03-11 05:40:00,34.5,20.9,30.18,East,83,0.0,2.7,57,0.00,,---,0.00,VWS V14.01,2013-03-11 11:40:00,
2013-03-11 05:45:00,34.2,20.9,30.18,East,84,0.0,0.0,58,0.00,,---,0.00,VWS V14.01,2013-03-11 11:45:00,
2013-03-11 05:50:00,34.2,22.1,30.18,NE,45,0.0,0.0,61,0.00,,---,0.00,VWS V14.01,2013-03-11 11:50:00,
2013-03-11 05:55:00,34.7,23.8,30.18,West,266,5.4,5.4,64,0.00,,---,0.00,VWS V14.01,2013-03-11 11:55:00,
2013-03-11 06:00:00,35.2,23.9,30.18,NW,308,0.0,0.0,63,0.00,,---,0.00,VWS V14.01,2013-03-11 12:00:00,
2013-03-11 06:05:00,35.8,24.0,30.18,ENE,63,0.0,0.0,62,0.00,,---,0.00,VWS V14.01,2013-03-11 12:05:00,
2013-03-11 06:10:00,36.3,23.4,30.18,WNW,298,3.6,5.4,59,0.00,,---,0.00,VWS V14.01,2013-03-11 12:10:00,
2013-03-11 06:15:00,36.3,20.8,30.18,NNE,18,4.9,5.4,53,0.00,,---,0.00,VWS V14.01,2013-03-11 12:15:00,
2013-03-11 06:20:00,36.7,20.3,30.18,North,357,0.0,5.4,51,0.00,,---,0.00,VWS V14.01,2013-03-11 12:20:00,
2013-03-11 06:25:00,36.0,20.1,30.18,ENE,64,0.0,5.4,52,0.00,,---,0.00,VWS V14.01,2013-03-11 12:25:00,
2013-03-11 06:30:00,35.4,20.0,30.18,SE,128,3.1,3.6,53,0.00,,---,0.00,VWS V14.01,2013-03-11 12:30:00,
2013-03-11 06:35:00,34.5,19.2,30.18,SSW,192,0.0,4.0,53,0.00,,---,0.00,VWS V14.01,2013-03-11 12:35:00,
2013-03-11 06:40:00,34.0,18.7,30.18,East,93,2.7,4.0,53,0.00,,---,0.00,VWS V14.01,2013-03-11 12:40:00,
2013-03-11 06:45:00,33.8,18.9,30.18,NW,319,0.0,0.0,54,0.00,,---,0.00,VWS V14.01,2013-03-11 12:45:00,
2013-03-11 06:50:00,33.3,18.4,30.18,WSW,254,0.0,0.0,54,0.00,,---,0.00,VWS V14.01,2013-03-11 12:50:00,
2013-03-11 06:55:00,33.4,19.0,30.18,ESE,120,2.2,3.1,55,0.00,,---,0.00,VWS V14.01,2013-03-11 12:55:00,
2013-03-11 07:00:00,33.8,19.4,30.18,SW,214,4.9,4.9,55,0.00,,---,0.00,VWS V14.01,2013-03-11 13:00:00,
2013-03-11 07:05:00,34.2,20.1,30.18,SE,146,2.7,5.4,56,0.00,,---,0.00,VWS V14.01,2013-03-11 13:05:00,
2013-03-11 07:10:00,34.3,20.3,30.18,SSW,194,2.7,5.4,56,0.00,,---,0.00,VWS V14.01,2013-03-11 13:10:00,
2013-03-11 07:15:00,34.0,19.5,30.18,West,268,2.7,4.0,55,0.00,,---,0.00,VWS V14.01,2013-03-11 13:15:00,
2013-03-11 07:20:00,33.6,19.2,30.18,SE,141,0.0,4.0,55,0.00,,---,0.00,VWS V14.01,2013-03-11 13:20:00,
2013-03-11 07:25:00,33.1,18.7,30.18,South,179,0.0,4.0,55,0.00,,---,0.00,VWS V14.01,2013-03-11 13:25:00,
2013-03-11 07:30:00,32.5,18.2,30.18,South,179,0.0,0.0,55,0.00,,---,0.00,VWS V14.01,2013-03-11 13:30:00,
2013-03-11 07:35:00,32.2,17.8,30.18,SE,140,0.0,0.0,55,0.00,,---,0.00,VWS V14.01,2013-03-11 13:35:00,
2013-03-11 07:40:00,32.2,18.3,30.21,WSW,241,2.7,3.6,56,0.00,,---,0.00,VWS V14.01,2013-03-11 13:40:00,
2013-03-11 07:45:00,32.2,18.3,30.21,South,185,4.9,4.9,56,0.00,,---,0.00,VWS V14.01,2013-03-11 13:45:00,
2013-03-11 07:50:00,32.9,19.4,30.21,SE,139,3.1,5.4,57,0.00,,---,0.00,VWS V14.01,2013-03-11 13:50:00,
2013-03-11 07:55:00,33.3,19.3,30.18,SSE,148,0.0,5.4,56,0.00,,---,0.00,VWS V14.01,2013-03-11 13:55:00,
2013-03-11 08:00:00,33.1,19.1,30.18,WSW,247,0.0,0.0,56,0.00,,---,0.00,VWS V14.01,2013-03-11 14:00:00,
2013-03-11 08:05:00,33.1,19.1,30.18,SSW,210,3.1,4.0,56,0.00,,---,0.00,VWS V14.01,2013-03-11 14:05:00,
2013-03-11 08:10:00,33.1,19.1,30.21,South,191,3.6,4.9,56,0.00,,---,0.00,VWS V14.01,2013-03-11 14:10:00,
2013-03-11 08:15:00,33.6,19.6,30.21,SSW,199,3.1,4.0,56,0.00,,---,0.00,VWS V14.01,2013-03-11 14:15:00,
2013-03-11 08:20:00,33.6,19.2,30.21,WSW,248,2.7,4.0,55,0.00,,---,0.00,VWS V14.01,2013-03-11 14:20:00,
2013-03-11 08:25:00,33.3,18.4,30.21,WSW,248,0.0,4.0,54,0.00,,---,0.00,VWS V14.01,2013-03-11 14:25:00,
2013-03-11 08:30:00,32.5,17.8,30.21,West,265,6.3,7.6,54,0.00,,---,0.00,VWS V14.01,2013-03-11 14:30:00,
2013-03-11 08:35:00,34.0,19.1,30.21,SSE,158,2.7,7.6,54,0.00,,---,0.00,VWS V14.01,2013-03-11 14:35:00,
2013-03-11 08:40:00,33.8,18.5,30.21,ESE,117,0.0,7.6,53,0.00,,---,0.00,VWS V14.01,2013-03-11 14:40:00,
2013-03-11 08:45:00,33.6,18.3,30.21,East,86,0.0,0.0,53,0.00,,---,0.00,VWS V14.01,2013-03-11 14:45:00,
2013-03-11 08:50:00,33.6,18.3,30.21,East,91,0.0,5.4,53,0.00,,---,0.00,VWS V14.01,2013-03-11 14:50:00,
2013-03-11 08:55:00,33.8,18.0,30.21,WSW,248,4.0,5.4,52,0.00,,---,0.00,VWS V14.01,2013-03-11 14:55:00,
2013-03-11 09:00:00,34.2,17.9,30.21,WNW,288,0.0,0.0,51,0.00,,---,0.00,VWS V14.01,2013-03-11 15:00:00,
2013-03-11 09:05:00,35.4,18.6,30.21,ENE,77,0.0,2.7,50,0.00,,---,0.00,VWS V14.01,2013-03-11 15:05:00,
2013-03-11 09:10:00,36.3,16.5,30.21,ESE,105,4.0,4.0,44,0.00,,---,0.00,VWS V14.01,2013-03-11 15:10:00,
2013-03-11 09:15:00,36.7,16.3,30.21,North,7,3.1,3.1,43,0.00,,---,0.00,VWS V14.01,2013-03-11 15:15:00,
2013-03-11 09:20:00,37.0,16.6,30.21,NW,307,0.0,3.6,43,0.00,,---,0.00,VWS V14.01,2013-03-11 15:20:00,
2013-03-11 09:25:00,37.0,17.2,30.21,SSW,203,0.0,4.0,44,0.00,,---,0.00,VWS V14.01,2013-03-11 15:25:00,
2013-03-11 09:30:00,37.0,17.2,30.21,South,173,4.0,4.9,44,0.00,,---,0.00,VWS V14.01,2013-03-11 15:30:00,
2013-03-11 09:35:00,38.1,14.8,30.21,North,353,2.7,8.3,38,0.00,,---,0.00,VWS V14.01,2013-03-11 15:35:00,
2013-03-11 09:40:00,38.8,14.2,30.21,WSW,254,3.6,8.3,36,0.00,,---,0.00,VWS V14.01,2013-03-11 15:40:00,
2013-03-11 09:45:00,39.2,15.1,30.21,NNW,331,0.0,0.0,37,0.00,,---,0.00,VWS V14.01,2013-03-11 15:45:00,
2013-03-11 09:50:00,39.0,15.6,30.21,WSW,244,0.0,0.0,38,0.00,,---,0.00,VWS V14.01,2013-03-11 15:50:00,
2013-03-11 09:55:00,38.8,15.4,30.21,East,96,3.1,3.6,38,0.00,,---,0.00,VWS V14.01,2013-03-11 15:55:00,
2013-03-11 10:00:00,38.7,14.6,30.21,ESE,104,5.8,7.6,37,0.00,,---,0.00,VWS V14.01,2013-03-11 16:00:00,
2013-03-11 10:06:00,38.8,14.8,30.21,ENE,75,2.2,7.6,37,0.00,,---,0.00,VWS V14.01,2013-03-11 16:06:00,
2013-03-11 10:11:00,39.2,12.5,30.21,WNW,298,2.7,7.6,33,0.00,,---,0.00,VWS V14.01,2013-03-11 16:11:00,
2013-03-11 10:16:00,39.4,13.4,30.21,WSW,254,0.0,0.0,34,0.00,,---,0.00,VWS V14.01,2013-03-11 16:16:00,
2013-03-11 10:20:00,39.4,13.4,30.21,WSW,249,0.0,0.0,34,0.00,,---,0.00,VWS V14.01,2013-03-11 16:20:00,
2013-03-11 10:26:00,40.1,12.6,30.21,SSW,209,3.1,8.1,32,0.00,,---,0.00,VWS V14.01,2013-03-11 16:26:00,
2013-03-11 10:30:00,41.0,12.0,30.21,WSW,237,3.1,5.4,30,0.00,,---,0.00,VWS V14.01,2013-03-11 16:30:00,
2013-03-11 10:35:00,41.4,11.5,30.21,West,276,8.3,8.3,29,0.00,,---,0.00,VWS V14.01,2013-03-11 16:35:00,
2013-03-11 10:41:00,42.1,12.1,30.21,North,0,2.7,8.3,29,0.00,,---,0.00,VWS V14.01,2013-03-11 16:41:00,
2013-03-11 10:46:00,42.4,12.4,30.21,West,280,0.0,5.8,29,0.00,,---,0.00,VWS V14.01,2013-03-11 16:46:00,
2013-03-11 10:51:00,42.8,12.0,30.21,WNW,293,5.4,5.8,28,0.00,,---,0.00,VWS V14.01,2013-03-11 16:51:00,
2013-03-11 10:56:00,43.2,12.3,30.21,WNW,302,3.6,7.6,28,0.00,,---,0.00,VWS V14.01,2013-03-11 16:56:00,
2013-03-11 11:01:00,44.1,13.1,30.21,NW,316,2.7,5.4,28,0.00,,---,0.00,VWS V14.01,2013-03-11 17:01:00,
2013-03-11 11:05:00,44.4,13.4,30.21,NNW,340,8.7,12.3,28,0.00,,---,0.00,VWS V14.01,2013-03-11 17:05:00,
2013-03-11 11:11:00,45.3,13.3,30.21,NW,309,3.1,12.3,27,0.00,,---,0.00,VWS V14.01,2013-03-11 17:11:00,
2013-03-11 11:16:00,45.7,11.9,30.21,NNW,338,2.7,4.9,25,0.00,,---,0.00,VWS V14.01,2013-03-11 17:16:00,
2013-03-11 11:21:00,46.4,11.6,30.21,NW,310,3.6,5.8,24,0.00,,---,0.00,VWS V14.01,2013-03-11 17:21:00,
2013-03-11 11:26:00,47.3,12.4,30.21,WNW,295,6.3,6.7,24,0.00,,---,0.00,VWS V14.01,2013-03-11 17:26:00,
2013-03-11 11:30:00,48.0,13.0,30.21,NNW,328,2.2,6.3,24,0.00,,---,0.00,VWS V14.01,2013-03-11 17:30:00,
2013-03-11 11:35:00,48.6,13.4,30.21,WNW,291,9.6,9.6,24,0.00,,---,0.00,VWS V14.01,2013-03-11 17:35:00,
2013-03-11 11:40:00,48.4,10.3,30.21,NW,307,5.8,10.1,21,0.00,,---,0.00,VWS V14.01,2013-03-11 17:40:00,
2013-03-11 11:46:00,48.6,10.4,30.21,NW,320,4.0,4.0,21,0.00,,---,0.00,VWS V14.01,2013-03-11 17:46:00,
2013-03-11 11:51:00,49.5,11.2,30.21,WNW,291,5.4,9.6,21,0.00,,---,0.00,VWS V14.01,2013-03-11 17:51:00,
2013-03-11 11:55:00,49.3,11.0,30.21,NNW,330,5.8,9.6,21,0.00,,---,0.00,VWS V14.01,2013-03-11 17:55:00,
2013-03-11 12:01:00,49.6,11.3,30.21,WSW,254,4.0,4.9,21,0.00,,---,0.00,VWS V14.01,2013-03-11 18:01:00,
2013-03-11 12:06:00,50.2,11.8,30.21,West,273,3.6,8.1,21,0.00,,---,0.00,VWS V14.01,2013-03-11 18:06:00,
2013-03-11 12:11:00,48.9,10.7,30.21,NW,320,6.3,8.1,21,0.00,,---,0.00,VWS V14.01,2013-03-11 18:11:00,
2013-03-11 12:16:00,48.9,10.7,30.21,NW,308,2.7,3.6,21,0.00,,---,0.00,VWS V14.01,2013-03-11 18:16:00,
2013-03-11 12:21:00,48.7,10.6,30.21,WNW,287,4.9,10.1,21,0.00,,---,0.00,VWS V14.01,2013-03-11 18:21:00,
2013-03-11 12:26:00,48.4,10.3,30.21,NNW,338,4.9,10.1,21,0.00,,---,0.00,VWS V14.01,2013-03-11 18:26:00,
2013-03-11 12:31:00,47.7,10.7,30.21,NNW,328,2.2,5.4,22,0.00,,---,0.00,VWS V14.01,2013-03-11 18:31:00,
2013-03-11 12:36:00,46.9,10.1,30.21,NNW,328,2.2,5.4,22,0.00,,---,0.00,VWS V14.01,2013-03-11 18:36:00,
2013-03-11 12:41:00,46.6,9.8,30.21,NNW,328,2.2,5.4,22,0.00,,---,0.00,VWS V14.01,2013-03-11 18:41:00,
2013-03-11 12:46:00,46.8,9.9,30.21,North,11,4.5,4.9,22,0.00,,---,0.00,VWS V14.01,2013-03-11 18:46:00,
2013-03-11 12:51:00,46.8,9.9,30.21,NW,307,7.6,9.6,22,0.00,,---,0.00,VWS V14.01,2013-03-11 18:51:00,
2013-03-11 12:56:00,46.2,9.5,30.21,ENE,60,5.8,9.6,22,0.00,,---,0.00,VWS V14.01,2013-03-11 18:56:00,
2013-03-11 13:01:00,46.9,10.1,30.21,NNE,19,3.6,8.1,22,0.00,,---,0.00,VWS V14.01,2013-03-11 19:01:00,
2013-03-11 13:06:00,47.3,10.4,30.21,North,6,5.4,10.5,22,0.00,,---,0.00,VWS V14.01,2013-03-11 19:06:00,
2013-03-11 13:11:00,47.5,10.6,30.21,NNW,332,5.4,10.5,22,0.00,,---,0.00,VWS V14.01,2013-03-11 19:11:00,
2013-03-11 13:16:00,48.7,10.6,30.21,NW,322,4.9,8.1,21,0.00,,---,0.00,VWS V14.01,2013-03-11 19:16:00,
2013-03-11 13:21:00,48.7,10.6,30.21,North,1,6.3,8.1,21,0.00,,---,0.00,VWS V14.01,2013-03-11 19:21:00,
2013-03-11 13:26:00,48.9,8.5,30.21,NNE,23,4.9,8.1,19,0.00,,---,0.00,VWS V14.01,2013-03-11 19:26:00,
2013-03-11 13:31:00,49.6,9.1,30.21,North,7,8.1,8.1,19,0.00,,---,0.00,VWS V14.01,2013-03-11 19:31:00,
2013-03-11 13:37:00,50.2,9.5,30.21,South,178,4.0,11.0,19,0.00,,---,0.00,VWS V14.01,2013-03-11 19:37:00,
2013-03-11 13:42:00,50.9,10.1,30.21,NNW,335,11.0,15.4,19,0.00,,---,0.00,VWS V14.01,2013-03-11 19:42:00,
2013-03-11 13:47:00,52.0,9.8,30.21,NW,312,7.6,8.3,18,0.00,,---,0.00,VWS V14.01,2013-03-11 19:47:00,
2013-03-11 13:52:00,50.7,10.0,30.21,North,0,4.0,8.3,19,0.00,,---,0.00,VWS V14.01,2013-03-11 19:52:00,
2013-03-11 13:57:00,50.4,9.7,30.21,NNW,335,8.1,8.3,19,0.00,,---,0.00,VWS V14.01,2013-03-11 19:57:00,
2013-03-11 14:02:00,50.0,9.4,30.21,WNW,295,5.4,8.7,19,0.00,,---,0.00,VWS V14.01,2013-03-11 20:02:00,
2013-03-11 14:07:00,52.0,9.8,30.21,WNW,291,4.0,15.0,18,0.00,,---,0.00,VWS V14.01,2013-03-11 20:07:00,
2013-03-11 14:12:00,52.2,10.0,30.21,WNW,298,12.3,15.0,18,0.00,,---,0.00,VWS V14.01,2013-03-11 20:12:00,
2013-03-11 14:17:00,51.8,9.7,30.21,NNE,12,2.7,4.0,18,0.00,,---,0.00,VWS V14.01,2013-03-11 20:17:00,
2013-03-11 14:22:00,51.6,10.7,30.21,ESE,109,3.1,7.2,19,0.00,,---,0.00,VWS V14.01,2013-03-11 20:22:00,
2013-03-11 14:27:00,52.0,9.8,30.21,WNW,288,3.1,7.2,18,0.00,,---,0.00,VWS V14.01,2013-03-11 20:27:00,
2013-03-11 14:32:00,52.5,10.2,30.21,South,182,6.3,8.1,18,0.00,,---,0.00,VWS V14.01,2013-03-11 20:32:00,
2013-03-11 14:37:00,51.6,10.7,30.21,South,188,3.6,13.2,19,0.00,,---,0.00,VWS V14.01,2013-03-11 20:37:00,
2013-03-11 14:42:00,51.6,10.7,30.21,West,262,3.1,13.2,19,0.00,,---,0.00,VWS V14.01,2013-03-11 20:42:00,
2013-03-11 14:47:00,50.2,9.5,30.21,NW,305,2.7,7.2,19,0.00,,---,0.00,VWS V14.01,2013-03-11 20:47:00,
2013-03-11 14:52:00,51.6,10.7,30.21,NW,324,2.7,8.1,19,0.00,,---,0.00,VWS V14.01,2013-03-11 20:52:00,
2013-03-11 14:57:00,51.4,10.6,30.21,NNE,29,2.7,8.1,19,0.00,,---,0.00,VWS V14.01,2013-03-11 20:57:00,
2013-03-11 15:02:00,53.1,10.7,30.21,NNE,17,4.9,5.4,18,0.00,,---,0.00,VWS V14.01,2013-03-11 21:02:00,
2013-03-11 15:07:00,52.2,10.0,30.21,North,357,3.1,6.3,18,0.00,,---,0.00,VWS V14.01,2013-03-11 21:07:00,
2013-03-11 15:12:00,51.6,10.7,30.21,East,97,2.2,6.3,19,0.00,,---,0.00,VWS V14.01,2013-03-11 21:12:00,
2013-03-11 15:17:00,52.3,10.1,30.21,SE,137,0.0,3.6,18,0.00,,---,0.00,VWS V14.01,2013-03-11 21:17:00,
2013-03-11 15:22:00,52.7,10.4,30.21,North,6,2.7,7.6,18,0.00,,---,0.00,VWS V14.01,2013-03-11 21:22:00,
2013-03-11 15:27:00,52.9,10.6,30.21,South,190,4.5,7.6,18,0.00,,---,0.00,VWS V14.01,2013-03-11 21:27:00,
2013-03-11 15:32:00,52.7,10.4,30.21,SSE,155,4.5,7.2,18,0.00,,---,0.00,VWS V14.01,2013-03-11 21:32:00,
2013-03-11 15:37:00,53.2,10.9,30.21,SW,226,0.0,7.2,18,0.00,,---,0.00,VWS V14.01,2013-03-11 21:37:00,
2013-03-11 15:42:00,53.2,10.9,30.21,WSW,245,3.6,8.1,18,0.00,,---,0.00,VWS V14.01,2013-03-11 21:42:00,
2013-03-11 15:47:00,52.5,10.2,30.21,WNW,302,5.4,6.3,18,0.00,,---,0.00,VWS V14.01,2013-03-11 21:47:00,
2013-03-11 15:52:00,50.9,10.1,30.21,SSW,211,5.4,8.7,19,0.00,,---,0.00,VWS V14.01,2013-03-11 21:52:00,
2013-03-11 15:57:00,50.2,9.5,30.21,WNW,298,4.9,8.7,19,0.00,,---,0.00,VWS V14.01,2013-03-11 21:57:00,
2013-03-11 16:02:00,50.2,9.5,30.21,SW,222,5.8,5.8,19,0.00,,---,0.00,VWS V14.01,2013-03-11 22:02:00,
2013-03-11 16:07:00,50.0,9.4,30.21,South,179,6.3,8.7,19,0.00,,---,0.00,VWS V14.01,2013-03-11 22:07:00,
2013-03-11 16:12:00,49.6,9.1,30.21,SW,216,8.3,9.6,19,0.00,,---,0.00,VWS V14.01,2013-03-11 22:12:00,
2013-03-11 16:17:00,50.7,10.0,30.21,SW,216,3.6,6.3,19,0.00,,---,0.00,VWS V14.01,2013-03-11 22:17:00,
2013-03-11 16:22:00,54.3,11.7,30.21,West,278,2.7,6.3,18,0.00,,---,0.00,VWS V14.01,2013-03-11 22:22:00,
2013-03-11 16:27:00,54.5,11.9,30.18,West,267,4.9,13.2,18,0.00,,---,0.00,VWS V14.01,2013-03-11 22:27:00,
2013-03-11 16:32:00,53.1,10.7,30.18,West,260,5.4,7.6,18,0.00,,---,0.00,VWS V14.01,2013-03-11 22:32:00,
2013-03-11 16:37:00,52.5,10.2,30.18,SW,230,6.3,8.1,18,0.00,,---,0.00,VWS V14.01,2013-03-11 22:37:00,
2013-03-11 16:42:00,52.2,10.0,30.21,South,171,7.6,11.0,18,0.00,,---,0.00,VWS V14.01,2013-03-11 22:42:00,
2013-03-11 16:47:00,51.4,10.6,30.21,WSW,248,8.3,12.3,19,0.00,,---,0.00,VWS V14.01,2013-03-11 22:47:00,
2013-03-11 16:52:00,51.6,10.7,30.21,WSW,241,8.1,12.3,19,0.00,,---,0.00,VWS V14.01,2013-03-11 22:52:00,
2013-03-11 16:57:00,52.2,10.0,30.21,South,189,5.4,12.3,18,0.00,,---,0.00,VWS V14.01,2013-03-11 22:57:00,
2013-03-11 17:02:00,51.6,10.7,30.21,SSW,200,10.1,10.1,19,0.00,,---,0.00,VWS V14.01,2013-03-11 23:02:00,
2013-03-11 17:07:00,50.7,10.0,30.21,SSW,193,10.1,13.6,19,0.00,,---,0.00,VWS V14.01,2013-03-11 23:07:00,
2013-03-11 17:12:00,50.2,9.5,30.18,SW,231,5.4,13.6,19,0.00,,---,0.00,VWS V14.01,2013-03-11 23:12:00,
2013-03-11 17:17:00,50.0,9.4,30.18,West,268,2.7,10.1,19,0.00,,---,0.00,VWS V14.01,2013-03-11 23:17:00,
2013-03-11 17:22:00,50.2,9.5,30.18,WSW,244,0.0,10.1,19,0.00,,---,0.00,VWS V14.01,2013-03-11 23:22:00,
2013-03-11 17:27:00,50.9,10.1,30.21,WSW,238,7.6,10.1,19,0.00,,---,0.00,VWS V14.01,2013-03-11 23:27:00,
2013-03-11 17:32:00,50.5,9.8,30.21,SSW,206,10.1,11.4,19,0.00,,---,0.00,VWS V14.01,2013-03-11 23:32:00,
2013-03-11 17:37:00,50.4,9.7,30.21,SW,227,7.6,11.4,19,0.00,,---,0.00,VWS V14.01,2013-03-11 23:37:00,
2013-03-11 17:42:00,50.2,9.5,30.21,SSW,203,6.3,11.4,19,0.00,,---,0.00,VWS V14.01,2013-03-11 23:42:00,
2013-03-11 17:47:00,50.0,9.4,30.21,SW,221,7.6,8.7,19,0.00,,---,0.00,VWS V14.01,2013-03-11 23:47:00,
2013-03-11 17:53:00,49.5,8.9,30.21,SW,221,8.3,10.5,19,0.00,,---,0.00,VWS V14.01,2013-03-11 23:53:00,
2013-03-11 17:58:00,49.1,8.6,30.21,SSW,212,3.1,10.5,19,0.00,,---,0.00,VWS V14.01,2013-03-11 23:58:00,
2013-03-11 18:03:00,48.2,7.9,30.21,South,179,8.1,12.3,19,0.00,,---,0.00,VWS V14.01,2013-03-12 00:03:00,
2013-03-11 18:08:00,48.2,7.9,30.21,WSW,241,4.0,12.3,19,0.00,,---,0.00,VWS V14.01,2013-03-12 00:08:00,
2013-03-11 18:13:00,48.2,7.9,30.21,SSW,196,3.6,12.3,19,0.00,,---,0.00,VWS V14.01,2013-03-12 00:13:00,
2013-03-11 18:18:00,48.2,7.9,30.21,SW,222,5.4,8.7,19,0.00,,---,0.00,VWS V14.01,2013-03-12 00:18:00,
2013-03-11 18:23:00,47.7,7.4,30.21,WSW,256,12.8,12.8,19,0.00,,---,0.00,VWS V14.01,2013-03-12 00:23:00,
2013-03-11 18:28:00,47.1,7.0,30.21,SSW,207,5.4,12.8,19,0.00,,---,0.00,VWS V14.01,2013-03-12 00:28:00,
2013-03-11 18:33:00,46.0,7.2,30.21,SSW,210,3.6,7.6,20,0.00,,---,0.00,VWS V14.01,2013-03-12 00:33:00,
2013-03-11 18:38:00,44.8,6.2,30.21,WSW,245,2.7,7.6,20,0.00,,---,0.00,VWS V14.01,2013-03-12 00:38:00,
2013-03-11 18:43:00,44.1,5.6,30.21,WSW,239,3.1,7.6,20,0.00,,---,0.00,VWS V14.01,2013-03-12 00:43:00,
2013-03-11 18:48:00,43.7,5.3,30.21,SSW,204,3.6,8.1,20,0.00,,---,0.00,VWS V14.01,2013-03-12 00:48:00,
2013-03-11 18:53:00,43.2,4.8,30.21,West,264,4.0,8.3,20,0.00,,---,0.00,VWS V14.01,2013-03-12 00:53:00,
2013-03-11 18:58:00,43.0,4.7,30.21,West,281,3.1,8.3,20,0.00,,---,0.00,VWS V14.01,2013-03-12 00:58:00,
2013-03-11 19:03:00,42.6,5.4,30.21,WSW,245,2.2,3.6,21,0.00,,---,0.00,VWS V14.01,2013-03-12 01:03:00,
2013-03-11 19:08:00,41.9,4.8,30.21,SW,216,5.4,5.4,21,0.00,,---,0.00,VWS V14.01,2013-03-12 01:08:00,
2013-03-11 19:13:00,41.7,4.7,30.21,WSW,254,5.4,5.4,21,0.00,,---,0.00,VWS V14.01,2013-03-12 01:13:00,
2013-03-11 19:18:00,41.4,4.4,30.21,SW,232,2.7,3.1,21,0.00,,---,0.00,VWS V14.01,2013-03-12 01:18:00,
2013-03-11 19:23:00,40.8,3.9,30.21,SW,232,0.0,3.6,21,0.00,,---,0.00,VWS V14.01,2013-03-12 01:23:00,
2013-03-11 19:28:00,39.7,3.0,30.21,SE,133,0.0,3.6,21,0.00,,---,0.00,VWS V14.01,2013-03-12 01:28:00,
2013-03-11 19:33:00,39.7,3.0,30.21,SSW,200,5.8,5.8,21,0.00,,---,0.00,VWS V14.01,2013-03-12 01:33:00,
2013-03-11 19:38:00,40.1,3.3,30.21,WSW,245,0.0,5.8,21,0.00,,---,0.00,VWS V14.01,2013-03-12 01:38:00,
2013-03-11 19:43:00,39.4,2.7,30.21,SW,228,0.0,5.8,21,0.00,,---,0.00,VWS V14.01,2013-03-12 01:43:00,
2013-03-11 19:48:00,38.7,2.1,30.21,WSW,249,3.1,3.1,21,0.00,,---,0.00,VWS V14.01,2013-03-12 01:48:00,
2013-03-11 19:53:00,38.8,2.3,30.21,NW,307,2.7,7.6,21,0.00,,---,0.00,VWS V14.01,2013-03-12 01:53:00,
2013-03-11 19:58:00,39.4,2.7,30.21,SSW,192,2.7,7.6,21,0.00,,---,0.00,VWS V14.01,2013-03-12 01:58:00,
2013-03-11 20:03:00,39.2,2.6,30.21,SW,228,0.0,2.2,21,0.00,,---,0.00,VWS V14.01,2013-03-12 02:03:00,
2013-03-11 20:08:00,38.5,2.0,30.21,SW,228,0.0,2.2,21,0.00,,---,0.00,VWS V14.01,2013-03-12 02:08:00,
2013-03-11 20:13:00,37.4,1.0,30.21,SW,228,0.0,2.2,21,0.00,,---,0.00,VWS V14.01,2013-03-12 02:13:00,
2013-03-11 20:49:00,38.7,5.0,30.21,NW,324,0.0,0.0,24,0.00,,---,0.00,VWS V14.01,2013-03-12 02:49:00,
2013-03-11 20:54:00,38.8,5.2,30.21,North,0,0.0,0.0,24,0.00,,---,0.00,VWS V14.01,2013-03-12 02:54:00,
2013-03-11 20:59:00,38.7,5.0,30.24,NNE,14,2.7,4.0,24,0.00,,---,0.00,VWS V14.01,2013-03-12 02:59:00,
2013-03-11 21:04:00,38.8,5.2,30.24,NNE,14,3.1,3.1,24,0.00,,---,0.00,VWS V14.01,2013-03-12 03:04:00,
2013-03-11 21:09:00,38.7,5.0,30.24,NNE,15,0.0,4.0,24,0.00,,---,0.00,VWS V14.01,2013-03-12 03:09:00,
2013-03-11 21:14:00,38.7,5.0,30.24,NNE,15,0.0,4.0,24,0.00,,---,0.00,VWS V14.01,2013-03-12 03:14:00,
2013-03-11 21:19:00,39.2,4.5,30.24,North,353,3.6,6.3,23,0.00,,---,0.00,VWS V14.01,2013-03-12 03:19:00,
2013-03-11 21:24:00,39.4,4.7,30.24,North,10,0.0,6.3,23,0.00,,---,0.00,VWS V14.01,2013-03-12 03:24:00,
2013-03-11 21:29:00,39.2,4.5,30.21,NW,306,0.0,6.3,23,0.00,,---,0.00,VWS V14.01,2013-03-12 03:29:00,
2013-03-11 21:34:00,39.4,4.7,30.21,WNW,297,0.0,4.0,23,0.00,,---,0.00,VWS V14.01,2013-03-12 03:34:00,
2013-03-11 21:39:00,39.6,4.8,30.21,SW,227,0.0,4.5,23,0.00,,---,0.00,VWS V14.01,2013-03-12 03:39:00,
2013-03-11 21:44:00,38.1,4.5,30.24,WNW,299,0.0,4.9,24,0.00,,---,0.00,VWS V14.01,2013-03-12 03:44:00,
2013-03-11 21:49:00,38.5,4.8,30.24,NW,314,3.1,4.0,24,0.00,,---,0.00,VWS V14.01,2013-03-12 03:49:00,
2013-03-11 21:54:00,38.7,5.0,30.24,West,264,0.0,4.0,24,0.00,,---,0.00,VWS V14.01,2013-03-12 03:54:00,
2013-03-11 21:59:00,37.2,3.8,30.24,WSW,253,0.0,4.0,24,0.00,,---,0.00,VWS V14.01,2013-03-12 03:59:00,
2013-03-11 22:00:00,37.2,3.8,30.24,West,259,0.0,4.0,24,0.00,,---,0.00,VWS V14.01,2013-03-12 04:00:00,
2013-03-11 22:05:00,35.8,2.5,30.24,WNW,294,0.0,3.6,24,0.00,,---,0.00,VWS V14.01,2013-03-12 04:05:00,
2013-03-11 22:10:00,35.6,2.4,30.24,WNW,294,0.0,3.6,24,0.00,,---,0.00,VWS V14.01,2013-03-12 04:10:00,
2013-03-11 22:15:00,37.4,3.9,30.24,North,353,5.4,5.4,24,0.00,,---,0.00,VWS V14.01,2013-03-12 04:15:00,
2013-03-11 22:20:00,39.2,4.5,30.24,NW,320,2.2,5.4,23,0.00,,---,0.00,VWS V14.01,2013-03-12 04:20:00,
2013-03-11 22:25:00,38.5,4.8,30.24,South,190,4.0,5.4,24,0.00,,---,0.00,VWS V14.01,2013-03-12 04:25:00,
2013-03-11 22:30:00,36.0,2.7,30.24,WSW,240,2.7,2.7,24,0.00,,---,0.00,VWS V14.01,2013-03-12 04:30:00,
2013-03-11 22:35:00,34.9,2.6,30.24,South,186,2.7,3.6,25,0.00,,---,0.00,VWS V14.01,2013-03-12 04:35:00,
2013-03-11 22:40:00,34.0,3.5,30.24,West,263,0.0,4.0,27,0.00,,---,0.00,VWS V14.01,2013-03-12 04:40:00,
2013-03-11 22:45:00,33.1,3.5,30.24,WNW,286,3.6,3.6,28,0.00,,---,0.00,VWS V14.01,2013-03-12 04:45:00,
2013-03-11 22:50:00,34.3,3.8,30.24,NNE,15,0.0,4.0,27,0.00,,---,0.00,VWS V14.01,2013-03-12 04:50:00,
2013-03-11 22:55:00,35.2,4.6,30.24,West,261,5.4,5.4,27,0.00,,---,0.00,VWS V14.01,2013-03-12 04:55:00,
2013-03-11 23:00:00,34.0,5.8,30.24,SSW,204,4.0,4.0,30,0.00,,---,0.00,VWS V14.01,2013-03-12 05:00:00,
2013-03-11 23:05:00,32.7,4.7,30.24,WSW,242,2.7,4.0,30,0.00,,---,0.00,VWS V14.01,2013-03-12 05:05:00,
2013-03-11 23:10:00,31.6,4.5,30.24,WNW,297,0.0,4.0,31,0.00,,---,0.00,VWS V14.01,2013-03-12 05:10:00,
2013-03-11 23:15:00,30.4,3.4,30.24,WNW,297,0.0,0.0,31,0.00,,---,0.00,VWS V14.01,2013-03-12 05:15:00,
2013-03-11 23:20:00,30.0,3.8,30.24,SSE,166,0.0,0.0,32,0.00,,---,0.00,VWS V14.01,2013-03-12 05:20:00,
2013-03-11 23:25:00,29.3,3.1,30.24,West,272,0.0,0.0,32,0.00,,---,0.00,VWS V14.01,2013-03-12 05:25:00,
2013-03-11 23:30:00,29.5,3.9,30.24,NW,314,0.0,0.0,33,0.00,,---,0.00,VWS V14.01,2013-03-12 05:30:00,
2013-03-11 23:35:00,29.7,4.7,30.24,WNW,292,0.0,4.0,34,0.00,,---,0.00,VWS V14.01,2013-03-12 05:35:00,
2013-03-11 23:40:00,29.5,4.6,30.24,SSE,166,0.0,4.0,34,0.00,,---,0.00,VWS V14.01,2013-03-12 05:40:00,
2013-03-11 23:45:00,29.1,3.6,30.24,South,181,0.0,0.0,33,0.00,,---,0.00,VWS V14.01,2013-03-12 05:45:00,
2013-03-11 23:50:00,28.8,3.3,30.24,South,185,0.0,0.0,33,0.00,,---,0.00,VWS V14.01,2013-03-12 05:50:00,
2013-03-11 23:55:00,28.8,3.3,30.24,South,185,0.0,0.0,33,0.00,,---,0.00,VWS V14.01,2013-03-12 05:55:00,